Regional Weather Roundup
Issued by NWS Kansas City/Pleasant Hill, MO

Home | Current Version | Previous Version | Graphics & Text | Print | Product List | Glossary Off
Versions: 1 2 3 4 5 6 7 8 9 10 11 12 13 14 15 16 17 18 19 20 21 22 23 24 25 26 27 28 29 30 31 32 33 34 35 36 37 38 39 40 41 42 43 44 45 46 47 48 49 50

000
ASUS43 KEAX 182004
RWREAX

WEATHER ROUNDUP FOR EASTERN KANSAS AND NORTHWEST MISSOURI
NATIONAL WEATHER SERVICE KANSAS CITY/PLEASANT HILL MO
300 PM CDT SAT APR 18 2015

KSZ040-057-103>105-MOZ028-029-037-043-182100-
...KANSAS CITY METROPOLITAN AREA...

CITY           SKY/WX    TMP DP  RH WIND       PRES   REMARKS
K.C. INTL      LGT RAIN  62  59  90 S8        29.90F
K.C. DOWNTOWN  LGT RAIN  64  60  87 S3        29.90F
LEES SUMMIT    LGT RAIN  61  59  93 SW7       29.92F
OLATHE - IXD   CLOUDY    61  59  93 SE10      29.91F
OLATHE - OJC   LGT RAIN  61  59  93 SE7       29.90F
LAWRENCE       LGT RAIN  62  59  90 S9        29.90F

$$

MOZ001>008-011>017-020>025-030>033-038>040-044>046-053-054-182100-
...NORTHERN AND CENTRAL MISSOURI...

CITY           SKY/WX    TMP DP  RH WIND       PRES   REMARKS
ST. JOSEPH     LGT RAIN  63  60  90 S7        29.91R
MOSBY          RAIN      61  61 100 S5        29.92F
WARRENSBURG    LGT RAIN  61  59  94 E5        29.94S
WHITEMAN AFB   LGT RAIN  61  60  96 E6        29.93F
CLINTON        CLOUDY    63  61  94 E3        29.94S
SEDALIA        LGT RAIN  61  59  93 NW8       29.94F FOG
WARSAW         NOT AVBL
MARSHALL       RAIN      63  61  94 SW5       29.97R
CHILLICOTHE      N/A     68  60  75 SW7       29.92R
MOBERLY        PTSUNNY   77  54  44 S18G25    29.90F
KIRKSVILLE     CLOUDY    73  61  65 SE14      29.89F

$$

MOZ041-047>049-056>058-063>065-088>090-097-182100-
...EASTERN AND SOUTHERN MISSOURI...

CITY           SKY/WX    TMP DP  RH WIND       PRES   REMARKS
ST. LOUIS INTL CLOUDY    76  60  57 SE12      29.94F
SPIRIT OF STL  CLOUDY    76  60  57 E10       29.92F
COLUMBIA       PTSUNNY   74  57  55 S13       29.92S
JEFFERSON CITY PTSUNNY   76  57  51 S9        29.90F
MEXICO         PTSUNNY   77  61  57 SE16      29.92S
HANNIBAL       MOSUNNY   81  48  32 SE12G18   29.92F
ROLLA          LGT RAIN  74  54  49 S12G21    29.91F
LEBANON        RAIN      63  61  94 CALM      29.95F
OSAGE BEACH    CLOUDY    63  57  82 W6        29.95S THUNDER
SPRINGFIELD    CLOUDY    67  57  70 VRB3      29.92F
BRANSON        CLOUDY    64  63  94 CALM      29.93F
NEVADA         LGT RAIN  63  57  82 CALM      29.93F
JOPLIN         CLOUDY    66  60  81 E3        29.89F
WEST PLAINS    CLOUDY    72  57  59 SE7       29.93F

$$

IAZ060-094-KSZ022-034>040-054-083-096-NEZ052-066-093-182100-
...KANSAS...SOUTHEAST NEBRASKA AND IOWA...

CITY           SKY/WX    TMP DP  RH WIND       PRES   REMARKS
TOPEKA         CLOUDY    63  58  83 SE10      29.89F
MANHATTAN      CLOUDY    70  61  73 S16G23    29.84F
EMPORIA        LGT RAIN  62  59  90 SE13      29.88F
CHANUTE        PTSUNNY   66  58  75 SE8       29.88F
WICHITA        CLOUDY    72  57  59 SE13G22   29.83F
OMAHA          LGT RAIN  62  60  93 SE13      29.90S FOG
LINCOLN        CLOUDY    63  58  83 SE10      29.88F
FALLS CITY     LGT RAIN  63  60  90 W5        29.87F
LAMONI         CLOUDY    66  60  81 NW7       29.90F
DES MOINES     LGT RAIN  66  56  70 S17G29    29.90R

$$



USA.gov is the U.S. government's official web portal to all federal, state and local government web resources and services.